FW3743 Weather Reports


Display with metric or nautical units.
time (UTC)temp
F
wind
direction
speed
MPH
gust
MPH
rain 1hr
in
rain 24hr
in
rain mn
in
humidity
%
barometer
mb
20260901074233 66 0.0 0.0 0.16 0.17 0.16 99 1015.4
20260901073236 66 0.0 0.0 0.16 0.17 0.16 99 1015.5
20260901072233 66 0.0 0.0 0.16 0.17 0.16 99 1015.4
20260901071236 66 0.0 0.0 0.06 0.07 0.06 99 1015.5
20260901070233 66 0.0 0.0 0.03 0.03 0.03 99 1014.7
20260901065236 66 0.0 0.0 0.01 0.02 0.01 99 1015.8
20260901064232 66 0.0 0.0 0.00 0.00 0.00 99 1015.9
20260901063236 66 0.0 0.0 0.00 0.00 0.00 99 1016.0
20260901062233 66 0.0 0.0 0.00 0.00 0.00 99 1016.1
20260901061236 66 0.0 0.0 0.00 0.00 0.00 99 1014.9
20260901060233 66 0.0 0.0 0.00 0.00 0.00 99 1016.0
20260901055236 66 0.0 0.0 0.00 0.00 0.00 99 1016.3
20260901054233 66 0.0 0.0 0.00 0.00 0.00 99 1016.4
20260901053236 66 0.0 0.0 0.00 0.00 0.00 99 1016.3
20260901052235 66 0.0 0.0 0.00 0.00 0.00 99 1016.6
20260901051236 66 0.0 0.0 0.00 0.00 0.00 99 1016.5
20260901050234 66 0.0 0.0 0.00 0.00 0.00 99 1016.5
20260901045236 66 0.0 0.0 0.00 0.00 0.00 99 1016.4
20260901044239 66 0.0 0.0 0.00 0.00 0.00 99 1016.5
20260901043236 66 0.0 0.0 0.00 0.00 0.00 99 1016.6
20260901042233 66 0.0 0.0 0.00 0.00 0.00 99 1016.9
20260901041239 67 0.0 0.0 0.00 0.00 0.00 99 1016.7
20260901040234 67 0.0 0.0 0.00 0.00 0.00 99 1016.8
20260901035236 67 0.0 0.0 0.00 0.00 0.00 99 1016.8
20260901034233 67 0.0 0.0 0.00 0.00 0.00 99 1016.0
20260901033316 67 0.0 0.0 0.00 0.00 0.00 99 1016.7
20260901032233 67 0.0 0.0 0.00 0.00 0.00 98 1015.8
20260901031256 67 0.0 0.0 0.00 0.00 0.00 98 1016.9
20260901030233 67 0.0 0.0 0.00 0.00 0.00 98 1017.1
20260901025236 67 0.0 0.0 0.00 0.00 0.00 98 1016.8
20260901024233 68 0.0 0.0 0.00 0.00 0.00 98 1016.9
20260901023236 68 0.0 0.0 0.00 0.00 0.00 98 1016.8
20260901022233 68 0.0 0.0 0.00 0.00 0.00 98 1017.1
20260901021236 68 0.0 0.0 0.00 0.00 0.00 97 1016.9
20260901020233 68 0.0 0.0 0.00 0.00 0.00 97 1017.2
20260901015236 68 0.0 0.0 0.00 0.00 0.00 97 1017.2
20260901014233 68 0.0 0.0 0.00 0.00 0.00 97 1017.4
20260901013236 68 0.0 0.0 0.00 0.00 0.00 97 1017.5
20260901012233 68 0.0 0.0 0.00 0.00 0.00 97 1017.6
20260901011237 68 0.0 0.0 0.00 0.00 0.00 97 1017.4
20260901010233 68 0.0 0.0 0.00 0.00 0.00 97 1017.4
20260901005237 68 0.0 0.0 0.00 0.00 0.00 97 1017.3
20260901004233 68 0.0 0.0 0.00 0.00 0.00 97 1017.2
20260901003257 68 0.0 0.0 0.00 0.00 0.00 97 1017.1
20260901002233 68 0.0 0.0 0.00 0.00 0.00 97 1017.1
20260901001257 68 0.0 0.0 0.00 0.00 0.00 97 1016.7
20260901000233 68 0.0 0.0 0.00 0.00 0.00 97 1017.1
20260831235237 68 0.0 0.0 0.00 0.00 0.00 97 1017.1
20260831234233 68 0.0 0.0 0.00 0.00 0.00 97 1017.1
20260831233237 68 0.0 0.0 0.00 0.00 0.00 97 1017.2
20260831232253 69 0.0 0.0 0.00 0.00 0.00 97 1017.2
20260831231238 69 0.0 0.0 0.00 0.00 0.00 97 1017.0
20260831230233 69 0.0 0.0 0.00 0.00 0.00 96 1017.4
20260831225237 69 0.0 0.0 0.00 0.00 0.00 96 1017.2
20260831224253 69 0.0 0.0 0.00 0.00 0.00 96 1017.5
20260831223237 69 0.0 0.0 0.00 0.00 0.00 96 1017.3
20260831222233 69 0.0 0.0 0.00 0.00 0.00 96 1017.5
20260831221237 69 0.0 0.0 0.00 0.00 0.00 96 1017.5
20260831220233 69 0.0 0.0 0.00 0.00 0.00 96 1017.7
20260831215237 69 0.0 0.0 0.00 0.00 0.00 96 1017.4
20260831214233 69 0.0 0.0 0.00 0.00 0.00 96 1017.6
20260831213237 69 0.0 0.0 0.00 0.00 0.00 96 1017.8
20260831212233 69 96 0.0 1.0 0.00 0.00 0.00 95 1018.0
20260831211257 68 0.0 0.0 0.00 0.00 0.00 95 1017.8
20260831210233 68 0.0 0.0 0.00 0.00 0.00 95 1017.9
20260831205237 68 0.0 0.0 0.00 0.00 0.00 95 1018.1
20260831204233 68 0.0 0.0 0.00 0.00 0.00 95 1018.3
20260831203237 68 0.0 0.0 0.00 0.00 0.00 95 1018.3
20260831202239 68 0.0 0.0 0.00 0.00 0.00 95 1018.3
20260831201257 68 0.0 0.0 0.00 0.00 0.00 94 1018.2
20260831200233 68 64 0.0 2.0 0.00 0.02 0.00 94 1018.3
20260831195317 68 56 0.0 1.0 0.00 0.02 0.00 94 1018.2
20260831194234 68 28 0.0 2.0 0.00 0.02 0.00 94 1018.6
20260831193257 68 0.0 0.0 0.00 0.02 0.00 94 1018.5
20260831192233 69 77 0.0 1.0 0.00 0.02 0.00 93 1018.8
20260831191237 69 0.0 0.0 0.00 0.02 0.00 93 1018.7
20260831190233 69 0.0 0.0 0.00 0.02 0.00 93 1019.0
20260831185237 69 111 0.0 2.0 0.00 0.02 0.00 93 1018.9
20260831184233 69 68 0.0 1.0 0.00 0.02 0.00 93 1019.0
20260831183238 69 115 0.0 2.0 0.00 0.02 0.00 94 1019.0
20260831182253 68 161 0.0 1.0 0.00 0.02 0.00 94 1019.3
20260831181257 69 68 0.0 1.0 0.00 0.03 0.00 94 1019.2
20260831180234 69 0.0 0.0 0.00 0.03 0.00 94 1019.6
20260831175257 69 0.0 0.0 0.00 0.03 0.00 93 1019.4
20260831174233 69 0.0 0.0 0.00 0.03 0.00 93 1019.9
20260831173237 69 0.0 0.0 0.00 0.03 0.00 92 1019.5
20260831172253 69 0.0 0.0 0.00 0.03 0.00 92 1019.8
20260831171237 69 0.0 0.0 0.00 0.03 0.00 91 1019.7
20260831170233 69 0.0 0.0 0.00 0.03 0.00 91 1020.0
20260831165238 69 0.0 0.0 0.00 0.03 0.00 90 1019.9
20260831164233 70 0.0 0.0 0.00 0.03 0.00 91 1020.1
20260831163237 70 0.0 0.0 0.00 0.03 0.00 91 1020.1
20260831162253 70 0.0 0.0 0.00 0.03 0.00 91 1020.2
20260831161237 69 0.0 0.0 0.00 0.03 0.00 91 1020.2
20260831160233 70 0.0 0.0 0.00 0.03 0.00 90 1020.4
20260831155237 70 78 0.0 2.0 0.00 0.03 0.00 90 1020.1
20260831154233 71 0.0 0.0 0.00 0.03 0.00 92 1020.3
20260831153237 70 0.0 0.0 0.00 0.02 0.00 92 1020.0
20260831152253 69 0.0 0.0 0.00 0.02 0.00 92 1020.1
20260831151237 69 110 0.0 2.0 0.00 0.02 0.00 92 1020.2
20260831150233 69 0.0 0.0 0.00 0.02 0.00 91 1020.4
20260831145237 69 0.0 0.0 0.00 0.02 0.00 91 1020.3
20260831144253 69 0.0 0.0 0.00 0.02 0.00 90 1020.4
20260831143237 69 0.0 0.0 0.00 0.02 0.00 91 1019.9
20260831142233 70 0.0 0.0 0.00 0.02 0.00 90 1020.0
20260831141238 68 52 0.0 1.0 0.00 0.02 0.00 93 1019.7
20260831140233 68 0.0 0.0 0.00 0.02 0.00 94 1020.2
20260831135238 67 0.0 0.0 0.00 0.02 0.00 95 1020.0
20260831134233 67 0.0 0.0 0.00 0.02 0.00 96 1020.3
20260831133258 66 0.0 0.0 0.00 0.02 0.00 97 1020.1
20260831132233 66 0.0 0.0 0.00 0.02 0.00 98 1020.3
20260831131238 65 0.0 0.0 0.00 0.02 0.00 98 1019.9
20260831130253 65 0.0 0.0 0.00 0.02 0.00 99 1020.2
20260831125258 64 0.0 0.0 0.00 0.02 0.00 99 1020.2
20260831124233 64 0.0 0.0 0.00 0.02 0.00 99 1020.1
20260831123238 64 0.0 0.0 0.00 0.02 0.00 99 1020.2
20260831122233 63 0.0 0.0 0.00 0.02 0.00 99 1020.6
20260831121237 63 0.0 0.0 0.00 0.02 0.00 99 1020.3
20260831120233 63 0.0 0.0 0.00 0.02 0.00 99 1020.6
20260831115237 63 0.0 0.0 0.00 0.02 0.00 99 1020.6
20260831114233 63 0.0 0.0 0.00 0.02 0.00 99 1020.6
20260831113240 63 0.0 0.0 0.00 0.02 0.00 99 1020.4
20260831112233 62 0.0 0.0 0.00 0.02 0.00 99 1020.5
20260831111238 62 0.0 0.0 0.00 0.02 0.00 99 1020.3
20260831110233 62 0.0 0.0 0.00 0.02 0.00 99 1020.6
20260831105238 62 0.0 0.0 0.00 0.02 0.00 99 1020.4
20260831104253 62 0.0 0.0 0.00 0.02 0.00 99 1020.8
20260831103238 62 0.0 0.0 0.00 0.02 0.00 99 1020.0
20260831102233 61 0.0 0.0 0.00 0.02 0.00 99 1020.2
20260831101238 61 0.0 0.0 0.00 0.02 0.00 99 1019.7
20260831100233 61 0.0 0.0 0.00 0.02 0.00 99 1020.0
20260831095238 62 0.0 0.0 0.00 0.02 0.00 99 1019.8
20260831094234 62 0.0 0.0 0.00 0.02 0.00 99 1019.8
20260831093238 62 0.0 0.0 0.00 0.02 0.00 99 1019.8
20260831092233 62 0.0 0.0 0.00 0.02 0.00 99 1019.9
20260831091238 62 0.0 0.0 0.00 0.02 0.00 99 1019.8
20260831090253 62 0.0 0.0 0.00 0.02 0.00 99 1019.9
20260831085238 62 0.0 0.0 0.00 0.02 0.00 99 1019.8
20260831084233 62 0.0 0.0 0.00 0.02 0.00 99 1020.0
20260831083238 62 0.0 0.0 0.00 0.02 0.00 99 1018.9
20260831082253 62 0.0 0.0 0.00 0.02 0.00 99 1020.0
20260831081238 62 0.0 0.0 0.00 0.02 0.00 99 1019.2
20260831080253 62 0.0 0.0 0.00 0.02 0.00 99 1020.0